ACA7137 EDHI-CYQG

Flight info

Callsign ACA7137
Flight time N/A
Altitude 38000
Route WSN4W WSN N125 PREXA L602 NALAX L46 GETNO DCT SUROX DCT DEVOL DCT BEXET DCT DOGAL/M079F380 NATD NEEKO/N0462F380 N620C MIILS Q907 DERLO Q818 KITOK DCT PICUP AUTTO1
Aircraft A21N/M-SDE2E3FGHIRWXY/LB1

Departure

Time N/A
Airport Hamburg-Finkenwerder Airport (EDHI)

Arrival

Time 2026-04-24 21:22
Airport Windsor International Airport (CYQG)
Time Latitude Longitude Altitude Speed Heading
2026-04-24 20:06 45.46189 -73.52764 37968 ft 450 kts 257°
2026-04-24 20:06 45.45127 -73.56918 37962 ft 450 kts 257°
2026-04-24 20:07 45.43327 -73.63950 37968 ft 449 kts 257°
2026-04-24 20:07 45.40821 -73.73709 37960 ft 449 kts 256°
2026-04-24 20:08 45.38668 -73.82056 37960 ft 449 kts 256°
2026-04-24 20:08 45.36509 -73.90398 37969 ft 448 kts 256°
2026-04-24 20:09 45.34352 -73.98704 37953 ft 448 kts 256°
2026-04-24 20:09 45.32189 -74.06999 37954 ft 447 kts 256°
2026-04-24 20:10 45.30027 -74.15263 37958 ft 446 kts 256°
2026-04-24 20:10 45.27859 -74.23518 37951 ft 445 kts 256°
2026-04-24 20:11 45.25677 -74.31797 37953 ft 445 kts 256°
2026-04-24 20:11 45.23510 -74.39993 37953 ft 444 kts 256°
2026-04-24 20:12 45.21331 -74.48209 37950 ft 445 kts 256°
2026-04-24 20:12 45.19146 -74.56406 37950 ft 444 kts 256°
2026-04-24 20:13 45.16972 -74.64529 37946 ft 443 kts 256°
2026-04-24 20:13 45.14777 -74.72702 37939 ft 443 kts 255°
2026-04-24 20:14 45.12630 -74.80842 37939 ft 441 kts 257°
2026-04-24 20:14 45.10630 -74.89030 37940 ft 440 kts 257°
2026-04-24 20:15 45.08637 -74.97173 37934 ft 440 kts 257°
2026-04-24 20:15 45.06614 -75.05353 37942 ft 440 kts 257°
2026-04-24 20:16 45.04585 -75.13500 37943 ft 440 kts 257°
2026-04-24 20:16 45.02552 -75.21628 37945 ft 438 kts 258°
2026-04-24 20:17 45.00514 -75.29750 37947 ft 438 kts 258°
2026-04-24 20:17 44.97467 -75.41836 37937 ft 436 kts 258°
2026-04-24 20:18 44.95427 -75.49890 37956 ft 436 kts 258°
2026-04-24 20:18 44.93398 -75.57877 37950 ft 435 kts 258°
2026-04-24 20:19 44.91358 -75.65884 37949 ft 436 kts 258°
2026-04-24 20:19 44.89277 -75.74010 37946 ft 434 kts 258°
2026-04-24 20:20 44.87212 -75.82041 37942 ft 433 kts 258°
2026-04-24 20:20 44.85160 -75.90010 37950 ft 433 kts 258°
2026-04-24 20:21 44.83102 -75.97959 37949 ft 433 kts 259°
2026-04-24 20:21 44.81038 -76.05912 37947 ft 433 kts 259°
2026-04-24 20:22 44.78965 -76.13869 37949 ft 433 kts 259°
2026-04-24 20:22 44.77885 -76.17785 38119 ft 434 kts 257°
2026-04-24 20:22 44.76645 -76.21669 38052 ft 438 kts 254°
2026-04-24 20:23 44.73689 -76.29192 37969 ft 441 kts 248°
2026-04-24 20:23 44.70486 -76.36562 37940 ft 440 kts 249°
2026-04-24 20:24 44.67291 -76.43896 37941 ft 438 kts 249°
2026-04-24 20:24 44.64102 -76.51211 37938 ft 437 kts 249°
2026-04-24 20:25 44.60933 -76.58452 37955 ft 436 kts 249°
2026-04-24 20:25 44.57785 -76.65635 37929 ft 435 kts 248°
2026-04-24 20:26 44.54608 -76.72871 37946 ft 435 kts 249°
2026-04-24 20:26 44.51440 -76.80057 37959 ft 433 kts 249°
2026-04-24 20:27 44.48277 -76.87225 37947 ft 433 kts 249°
2026-04-24 20:27 44.45130 -76.94330 37958 ft 431 kts 249°
2026-04-24 20:28 44.41966 -77.01463 37948 ft 431 kts 249°
2026-04-24 20:28 44.38819 -77.08536 37937 ft 430 kts 249°
2026-04-24 20:29 44.35645 -77.15654 37950 ft 431 kts 249°
2026-04-24 20:29 44.32508 -77.22662 37947 ft 428 kts 249°
2026-04-24 20:30 44.29342 -77.29726 37953 ft 428 kts 249°
2026-04-24 20:30 44.26181 -77.36753 37963 ft 428 kts 248°
2026-04-24 20:31 44.23029 -77.43747 37964 ft 428 kts 249°
2026-04-24 20:31 44.20126 -77.50897 37963 ft 421 kts 254°
2026-04-24 20:32 44.17798 -77.58311 37956 ft 415 kts 258°
2026-04-24 20:32 44.15671 -77.65743 37967 ft 415 kts 257°
2026-04-24 20:33 44.13517 -77.73239 37970 ft 416 kts 257°
2026-04-24 20:33 44.11368 -77.80686 37956 ft 415 kts 257°
2026-04-24 20:34 44.09214 -77.88130 37957 ft 416 kts 257°
2026-04-24 20:34 44.07056 -77.95561 37949 ft 415 kts 257°
2026-04-24 20:35 44.04886 -78.03014 37953 ft 416 kts 257°
2026-04-24 20:35 44.02716 -78.10439 37938 ft 417 kts 257°
2026-04-24 20:36 44.00532 -78.17899 37938 ft 418 kts 257°
2026-04-24 20:36 43.98342 -78.25351 37941 ft 418 kts 256°
2026-04-24 20:37 43.96140 -78.32822 37940 ft 420 kts 257°
2026-04-24 20:37 43.93933 -78.40295 37932 ft 419 kts 256°
2026-04-24 20:38 43.91714 -78.47774 37938 ft 420 kts 256°
2026-04-24 20:38 43.89489 -78.55256 37931 ft 420 kts 256°
2026-04-24 20:39 43.87301 -78.62595 37931 ft 420 kts 256°
2026-04-24 20:39 43.85067 -78.70070 37932 ft 421 kts 256°
2026-04-24 20:40 43.82813 -78.77580 37936 ft 421 kts 256°
2026-04-24 20:40 43.80560 -78.85072 37929 ft 423 kts 255°
2026-04-24 20:41 43.78305 -78.92545 37934 ft 423 kts 255°
2026-04-24 20:41 43.76030 -79.00054 37929 ft 424 kts 255°
2026-04-24 20:42 43.73746 -79.07586 37918 ft 424 kts 255°
2026-04-24 20:42 43.71469 -79.15052 37921 ft 423 kts 255°
2026-04-24 20:43 43.69174 -79.22562 37915 ft 422 kts 255°
2026-04-24 20:43 43.66892 -79.30006 37930 ft 423 kts 255°
2026-04-24 20:44 43.64582 -79.37458 37927 ft 423 kts 254°
2026-04-24 20:44 43.62163 -79.44894 37928 ft 424 kts 253°
2026-04-24 20:45 43.59747 -79.52260 37926 ft 424 kts 253°
2026-04-24 20:45 43.57317 -79.59647 37926 ft 424 kts 253°
2026-04-24 20:46 43.54870 -79.67083 37915 ft 423 kts 253°
2026-04-24 20:46 43.52446 -79.74429 37906 ft 424 kts 253°
2026-04-24 20:47 43.50010 -79.81795 37900 ft 423 kts 253°
2026-04-24 20:47 43.47567 -79.89157 37891 ft 423 kts 252°
2026-04-24 20:48 43.45114 -79.96536 37890 ft 424 kts 252°
2026-04-24 20:48 43.42656 -80.03896 37879 ft 423 kts 252°
2026-04-24 20:49 43.40193 -80.11263 37886 ft 423 kts 252°
2026-04-24 20:49 43.37737 -80.18586 37881 ft 422 kts 252°
2026-04-24 20:50 43.35272 -80.25923 37387 ft 424 kts 252°
2026-04-24 20:50 43.34046 -80.29569 36591 ft 423 kts 251°
2026-04-24 20:50 43.32778 -80.33324 35737 ft 423 kts 251°
2026-04-24 20:51 43.31546 -80.36972 34963 ft 421 kts 251°
2026-04-24 20:51 43.30296 -80.40667 34205 ft 422 kts 251°
2026-04-24 20:51 43.29052 -80.44338 33451 ft 423 kts 251°
2026-04-24 20:51 43.27814 -80.47986 32699 ft 424 kts 250°
2026-04-24 20:52 43.26574 -80.51633 32143 ft 420 kts 250°
2026-04-24 20:52 43.25346 -80.55239 31637 ft 415 kts 250°
2026-04-24 20:52 43.24135 -80.58791 31132 ft 410 kts 250°
2026-04-24 20:52 43.22923 -80.62329 30603 ft 407 kts 250°
2026-04-24 20:53 43.21742 -80.65784 30073 ft 403 kts 249°
2026-04-24 20:53 43.20558 -80.69245 29542 ft 400 kts 249°
2026-04-24 20:53 43.19375 -80.72696 29026 ft 396 kts 249°
2026-04-24 20:53 43.18212 -80.76086 28523 ft 392 kts 249°
2026-04-24 20:54 43.17057 -80.79446 28050 ft 388 kts 249°
2026-04-24 20:54 43.15917 -80.82767 27572 ft 386 kts 249°
2026-04-24 20:54 43.14768 -80.86100 27074 ft 383 kts 249°
2026-04-24 20:54 43.13649 -80.89347 26582 ft 379 kts 249°
2026-04-24 20:55 43.12517 -80.92622 26092 ft 376 kts 249°
2026-04-24 20:55 43.11402 -80.95847 25598 ft 373 kts 249°
2026-04-24 20:55 43.10313 -80.98994 25107 ft 370 kts 249°
2026-04-24 20:55 43.09208 -81.02186 24598 ft 367 kts 249°
2026-04-24 20:56 43.08129 -81.05294 24102 ft 365 kts 249°
2026-04-24 20:56 43.07041 -81.08453 23608 ft 362 kts 249°
2026-04-24 20:56 43.06090 -81.11588 23111 ft 359 kts 252°
2026-04-24 20:56 43.05198 -81.14779 22610 ft 358 kts 252°
2026-04-24 20:57 43.04317 -81.17938 22086 ft 357 kts 252°
2026-04-24 20:57 43.03433 -81.21101 21553 ft 357 kts 252°
2026-04-24 20:57 43.02555 -81.24248 21022 ft 356 kts 252°
2026-04-24 20:57 43.01669 -81.27409 20494 ft 355 kts 252°
2026-04-24 20:58 43.00794 -81.30525 19975 ft 354 kts 252°
2026-04-24 20:58 42.99910 -81.33667 19451 ft 353 kts 252°
2026-04-24 20:58 42.99031 -81.36780 18926 ft 351 kts 252°
2026-04-24 20:58 42.98163 -81.39862 18408 ft 349 kts 252°
2026-04-24 20:59 42.97288 -81.42958 17889 ft 347 kts 252°
2026-04-24 20:59 42.96424 -81.46011 17380 ft 345 kts 252°
2026-04-24 20:59 42.95563 -81.49052 16871 ft 342 kts 252°
2026-04-24 20:59 42.94708 -81.52066 16381 ft 340 kts 251°
2026-04-24 21:00 42.93864 -81.55037 15891 ft 337 kts 252°
2026-04-24 21:00 42.93021 -81.58003 15384 ft 335 kts 251°
2026-04-24 21:00 42.92180 -81.60952 14888 ft 333 kts 252°
2026-04-24 21:00 42.91347 -81.63876 14387 ft 330 kts 251°
2026-04-24 21:01 42.90511 -81.66803 13905 ft 328 kts 251°
2026-04-24 21:01 42.89687 -81.69683 13390 ft 325 kts 251°
2026-04-24 21:01 42.88869 -81.72549 12880 ft 322 kts 251°
2026-04-24 21:01 42.88059 -81.75377 12411 ft 319 kts 250°
2026-04-24 21:02 42.87256 -81.78178 11944 ft 317 kts 250°
2026-04-24 21:02 42.86445 -81.81008 11466 ft 314 kts 250°
2026-04-24 21:02 42.85727 -81.83774 10938 ft 311 kts 254°
2026-04-24 21:02 42.85176 -81.86546 10768 ft 298 kts 257°
2026-04-24 21:03 42.84698 -81.89208 10808 ft 281 kts 257°
2026-04-24 21:03 42.84238 -81.91794 10830 ft 280 kts 257°
2026-04-24 21:03 42.83787 -81.94340 10834 ft 279 kts 257°
2026-04-24 21:03 42.83247 -81.96911 10867 ft 280 kts 250°
2026-04-24 21:04 42.82314 -81.99231 10894 ft 282 kts 237°
2026-04-24 21:04 42.81017 -82.01268 10937 ft 284 kts 229°
2026-04-24 21:04 42.79638 -82.03181 10952 ft 284 kts 228°
2026-04-24 21:04 42.78250 -82.05079 10960 ft 284 kts 228°
2026-04-24 21:05 42.76858 -82.06984 10963 ft 284 kts 227°
2026-04-24 21:05 42.75464 -82.08895 10972 ft 283 kts 228°
2026-04-24 21:05 42.74063 -82.10819 10995 ft 287 kts 228°
2026-04-24 21:05 42.72626 -82.12802 11001 ft 303 kts 228°
2026-04-24 21:06 42.71123 -82.14874 11006 ft 306 kts 228°
2026-04-24 21:06 42.69627 -82.16931 10999 ft 306 kts 228°
2026-04-24 21:06 42.68122 -82.18997 10974 ft 307 kts 227°
2026-04-24 21:06 42.66626 -82.21051 10889 ft 307 kts 228°
2026-04-24 21:07 42.65129 -82.23105 10651 ft 303 kts 228°
2026-04-24 21:07 42.63674 -82.25097 10396 ft 292 kts 228°
2026-04-24 21:07 42.62271 -82.27017 10153 ft 283 kts 227°
2026-04-24 21:07 42.60895 -82.28902 9747 ft 280 kts 228°
2026-04-24 21:08 42.59547 -82.30751 9405 ft 275 kts 227°
2026-04-24 21:08 42.58218 -82.32573 9066 ft 273 kts 227°
2026-04-24 21:08 42.56889 -82.34395 8727 ft 270 kts 227°
2026-04-24 21:08 42.55575 -82.36192 8380 ft 268 kts 227°
2026-04-24 21:09 42.54259 -82.37993 8024 ft 266 kts 227°
2026-04-24 21:09 42.52967 -82.39759 7679 ft 264 kts 227°
2026-04-24 21:09 42.51688 -82.41505 7335 ft 263 kts 226°
2026-04-24 21:09 42.50406 -82.43254 6992 ft 261 kts 226°
2026-04-24 21:10 42.49129 -82.44994 6660 ft 259 kts 226°
2026-04-24 21:10 42.47861 -82.46719 6404 ft 258 kts 226°
2026-04-24 21:10 42.46592 -82.48444 6143 ft 257 kts 226°
2026-04-24 21:10 42.45347 -82.50137 5895 ft 256 kts 226°
2026-04-24 21:11 42.44087 -82.51849 5730 ft 256 kts 225°
2026-04-24 21:11 42.42823 -82.53565 5598 ft 255 kts 225°
2026-04-24 21:11 42.41576 -82.55257 5478 ft 255 kts 225°
2026-04-24 21:11 42.40334 -82.56943 5363 ft 254 kts 225°
2026-04-24 21:12 42.39063 -82.58632 5234 ft 254 kts 224°
2026-04-24 21:12 42.38192 -82.59691 5152 ft 254 kts 221°
2026-04-24 21:12 42.36444 -82.61803 4981 ft 252 kts 223°
2026-04-24 21:12 42.35134 -82.63403 4845 ft 251 kts 223°
2026-04-24 21:13 42.33840 -82.64981 4711 ft 251 kts 223°
2026-04-24 21:13 42.32542 -82.66561 4595 ft 250 kts 222°
2026-04-24 21:13 42.31249 -82.68137 4466 ft 250 kts 222°
2026-04-24 21:13 42.29956 -82.69714 4331 ft 250 kts 222°
2026-04-24 21:14 42.28651 -82.71303 4193 ft 245 kts 222°
2026-04-24 21:14 42.27416 -82.72804 4072 ft 239 kts 222°
2026-04-24 21:14 42.26179 -82.74307 3938 ft 238 kts 222°
2026-04-24 21:14 42.24963 -82.75785 3824 ft 237 kts 222°
2026-04-24 21:15 42.23733 -82.77283 3648 ft 237 kts 222°
2026-04-24 21:15 42.22511 -82.78811 3452 ft 237 kts 225°
2026-04-24 21:15 42.21400 -82.80443 3240 ft 236 kts 229°
2026-04-24 21:15 42.20338 -82.82113 3046 ft 236 kts 229°
2026-04-24 21:16 42.19320 -82.83850 2990 ft 237 kts 234°
2026-04-24 21:16 42.18494 -82.85786 2986 ft 238 kts 241°
2026-04-24 21:16 42.17829 -82.87840 2983 ft 238 kts 249°
2026-04-24 21:16 42.17347 -82.89955 2984 ft 238 kts 252°
2026-04-24 21:17 42.16896 -82.92101 2983 ft 238 kts 252°
2026-04-24 21:17 42.16454 -82.94250 2982 ft 238 kts 252°
2026-04-24 21:17 42.16043 -82.96418 2979 ft 239 kts 258°
2026-04-24 21:17 42.15998 -82.97903 2974 ft 238 kts 271°
2026-04-24 21:18 42.16665 -83.00632 2804 ft 231 kts 304°
2026-04-24 21:18 42.17828 -83.02078 2642 ft 226 kts 320°
2026-04-24 21:18 42.19099 -83.03263 2490 ft 220 kts 323°
2026-04-24 21:18 42.20368 -83.04380 2353 ft 211 kts 326°
2026-04-24 21:19 42.21661 -83.05212 2249 ft 202 kts 338°
2026-04-24 21:19 42.22296 -83.05469 2169 ft 198 kts 344°
2026-04-24 21:19 42.23629 -83.05463 2002 ft 190 kts 20°
2026-04-24 21:19 42.24604 -83.04428 1870 ft 172 kts 58°
2026-04-24 21:20 42.25573 -83.01803 1462 ft 144 kts 71°
2026-04-24 21:20 42.25966 -83.00597 1252 ft 135 kts 68°
2026-04-24 21:20 42.26316 -82.99669 1113 ft 128 kts 67°
2026-04-24 21:21 42.26729 -82.98602 964 ft 127 kts 66°
2026-04-24 21:21 42.27132 -82.97549 787 ft 126 kts 68°
2026-04-24 21:21 42.27533 -82.96523 655 ft 124 kts 68°
2026-04-24 21:21 42.27905 -82.95552 624 ft 99 kts 63°
2026-04-24 21:22 42.28141 -82.94932 621 ft 49 kts 63°
2026-04-24 21:22 42.28251 -82.94690 619 ft 14 kts 46°
2026-04-24 21:22 42.28260 -82.94646 618 ft 4 kts 158°
2026-04-24 21:22 42.28244 -82.94660 619 ft 5 kts 242°
2026-04-24 21:23 42.28212 -82.94743 619 ft 10 kts 241°
2026-04-24 21:23 42.28173 -82.94848 620 ft 14 kts 244°
2026-04-24 21:23 42.28120 -82.94987 621 ft 18 kts 242°
2026-04-24 21:23 42.28058 -82.95145 622 ft 19 kts 242°
2026-04-24 21:24 42.27995 -82.95305 623 ft 18 kts 242°
2026-04-24 21:24 42.27936 -82.95458 624 ft 18 kts 244°
2026-04-24 21:24 42.27878 -82.95611 624 ft 18 kts 242°
2026-04-24 21:24 42.27819 -82.95763 625 ft 18 kts 243°
2026-04-24 21:25 42.27761 -82.95916 625 ft 18 kts 242°
2026-04-24 21:25 42.27698 -82.96073 626 ft 20 kts 241°
2026-04-24 21:25 42.27626 -82.96263 626 ft 24 kts 243°
2026-04-24 21:25 42.27544 -82.96474 627 ft 26 kts 242°
2026-04-24 21:26 42.27462 -82.96687 627 ft 25 kts 243°
2026-04-24 21:26 42.27391 -82.96871 627 ft 13 kts 242°
2026-04-24 21:26 42.27354 -82.96963 628 ft 9 kts 230°
2026-04-24 21:26 42.27297 -82.96943 628 ft 11 kts 118°
2026-04-24 21:27 42.27261 -82.96846 627 ft 12 kts 115°
2026-04-24 21:27 42.27223 -82.96739 627 ft 13 kts 114°
2026-04-24 21:27 42.27184 -82.96624 627 ft 14 kts 115°
2026-04-24 21:27 42.27156 -82.96542 626 ft 14 kts 115°
2026-04-24 21:28 42.27096 -82.96371 626 ft 15 kts 115°
2026-04-24 21:28 42.27050 -82.96237 625 ft 16 kts 115°
2026-04-24 21:28 42.27003 -82.96100 625 ft 16 kts 115°
2026-04-24 21:28 42.26953 -82.95959 625 ft 16 kts 115°
2026-04-24 21:29 42.26903 -82.95814 624 ft 17 kts 115°
2026-04-24 21:29 42.26850 -82.95665 623 ft 17 kts 116°
2026-04-24 21:29 42.26799 -82.95514 623 ft 17 kts 114°
2026-04-24 21:29 42.26751 -82.95373 622 ft 10 kts 114°
2026-04-24 21:30 42.26773 -82.95285 622 ft 11 kts 30°
2026-04-24 21:30 42.26850 -82.95237 622 ft 12 kts 26°
2026-04-24 21:30 42.26931 -82.95184 621 ft 11 kts 25°
2026-04-24 21:30 42.26958 -82.95153 621 ft 5 kts 82°
2026-04-24 21:31 42.26943 -82.95100 621 ft 7 kts 115°
2026-04-24 21:31 42.26932 -82.95069 621 ft 0 kts 115°